User: anonymous   Login
Location: Unspecified
(0.0000°N, 0.0000°E)
Time: 05:31:02
(UTC+00:00)
Language:

Radcal - Orbit

View from above orbital plane
View from above orbital plane
View from above satellite
View from above satellite

Ground track
Ground track

The orbit data is extracted from the following two-line orbital elements,

1 22698U 93041A   17177.94752874 +.00000043 +00000-0 +12300-4 0  9990
2 22698 089.5495 232.6846 0091417 100.6591 260.4912 14.23347570245948
Epoch (UTC): 26 June 2017 22:44:26
Eccentricity: 0.0091417
inclination: 89.5495°
perigee height: 748 km
apogee height: 880 km
right ascension of ascending node: 232.6846°
argument of perigee: 100.6591°
revolutions per day: 14.23347570
mean anomaly at epoch: 260.4912°
orbit number at epoch: 24594

The dashed part of the orbit path shows where the satellite is in the earth's shadow,  

DLR